Погода в Свободном

Россия / Саратовская область     52°19′51″N   46°22′02″E
темп.,
°C
ветер,
м/с
пор.,
м/с
влажн.,
%
обл.,
%
осадки,
мм/ч
давл.,
гПа
погр.,
м
16 сентября, чт
чт1601:00+10сз4664100 0.0 1012707
04:00+9сз4769100 0.0 1012495
07:00+9сз4774100 0.0 1012579
10:00+9сз5873100 0.0 1012729
13:00+9сз6769100 0.2 10141021
16:00+8сз5983100 1.9 10141057
19:00+8ссз598130 0.1 1015332
22:00+6сз47889 0.1 1016154
17 сентября, пт
пт1701:00+6сз348425 0.0 1017109
04:00+5сз2483100 0.0 1018112
07:00+7сз2778100 0.0 1018303
10:00+8зсз3664100 0.0 1018622
13:00+10сз5750100 0.0 10181375
16:00+11сз584299 0.0 10171698
19:00+9сз3453100 0.0 101794
22:00+8ссв2555100 0.0 1018183
18 сентября, сб
сб1801:00+8св1157100 0.0 101943
04:00+7зсз2367100 0.1 1019144
07:00+5с356697 0.0 1020143
10:00+9ссв455072 0.0 1021917
13:00+12ссв33325 0.0 10211456
16:00+13ссв3330100 0.0 10211623
19:00+9с2244100 0.0 102120
22:00+8св3652100 0.0 1023118
19 сентября, вс
вс1901:00+5всв4966100 0.0 1024313
04:00+4всв3774100 0.0 1024153
07:00+3в3574100 0.0 1025121
10:00+8вюв4455100 0.0 1026546
13:00+12вюв444292 0.0 10251145
16:00+13вюв4437100 0.0 10241372
19:00+10в4746100 0.0 1024168
22:00+9в51145100 0.0 1023352
20 сентября, пн
пн2001:00+9в61245100 0.0 1023474
04:00+7в71254100 0.2 1023449
07:00+6в71470100 1.0 1022449
10:00+6в81465100 1.4 1022560
13:00+6в81478100 3.4 1022649
16:00+5в81686100 7.4 1021614
19:00+6в81683100 0.9 1021487
22:00+8вюв81677100 0.9 1020602